Погода в Поливанове

Россия / Рязанская область     54°27′48″N   38°55′10″E
темп.,
°C
ветер,
м/с
пор.,
м/с
влажн.,
%
обл.,
%
осадки,
мм/ч
давл.,
гПа
погр.,
м
12 мая, ср
ср1200:00+9юв119248 0.0 102611
03:00+8юв229216 0.0 102612
06:00+10вюв228199 0.0 102780
09:00+10з1183100 0.2 102598
12:00+15св51177100 0.2 1022794
15:00+13в71492100 0.9 1019720
18:00+12юв71397100 5.1 1018765
21:00+8ююв379784 5.6 1021255
13 мая, чт
чт1300:00+9юв359045 0.0 1021358
03:00+6в3595100 0.0 102199
06:00+8вюв389272 0.0 1021207
09:00+13вюв477499 0.0 1020408
12:00+17в5663100 0.0 1017884
15:00+17вюв677540 0.3 10151059
18:00+14зюз91188100 2.8 1016930
21:00+10ю259193 6.7 1017157
14 мая, пт
пт1400:00+9ююз3495100 0.0 101778
03:00+8ю22931 0.0 101812
06:00+10юв2394100 0.0 1019100
09:00+15юв3581100 0.0 1018392
12:00+20юв466831 0.0 1017835
15:00+22юв686385 0.1 10151527
18:00+21юв5107494 1.3 1013435
21:00+17ююв4118888 3.1 1012205
15 мая, сб
сб1500:00+15ю3393100 2.1 101333
03:00+15юв4694100 2.2 101287
06:00+15зюз41089100 0.6 1013297
09:00+18вюв71181100 1.5 1010409
12:00+19ююв5985100 1.3 1011568
15:00+22ю8117172 2.0 10101295
18:00+20ююз6107686 0.8 1010634
21:00+15ююз49910 1.2 1011186
16 мая, вс
вс1600:00+13ююз379335 0.0 1012124
03:00+12ююз34950 0.0 101384
06:00+13юз37930 0.0 1014209
09:00+17зюз45720 0.0 1015610
12:00+20зюз356214 0.0 10151238
15:00+20юз3461100 0.0 10161256
18:00+20зюз136498 0.0 1016831
21:00+16св227599 0.0 101611